When you browse on this site, cookies collect data to enhance your experience and personalize the content and advertising you see.
Visit our Privacy Policy to learn more. By continuing to use the site, you agree to this use of cookies and data.
  • In Hungary
  • List of Countries
  • For 7 days
  • Water Temperature
  • Satellite Maps
  • Weather Map
  • News
  • Weather Widgets
  • user-avatar
    Login

    Hourly Weather Stockport

    Today, 15 December, Saturday

    Time Temperature Precipitation Wind Pressure Humidity
    00:00 -2°C° 0 mm 6 mps 757 mmHg 78%
    01:00 -2°C° 0 mm 6 mps 756 mmHg 76%
    02:00 -2°C° 0 mm 7 mps 756 mmHg 74%
    03:00 -2°C° 0 mm 7 mps 755 mmHg 71%
    04:00 -2°C° 0 mm 7 mps 754 mmHg 72%
    05:00 -2°C° 0 mm 8 mps 754 mmHg 72%
    06:00 -2°C° 0 mm 8 mps 753 mmHg 73%
    07:00 -2°C° 0.2 mm 8 mps 752 mmHg 74%
    08:00 -3°C° 0.2 mm 9 mps 751 mmHg 76%
    09:00 -3°C° 0.2 mm 9 mps 751 mmHg 77%
    10:00 -3°C° 0.1 mm 9 mps 749 mmHg 77%
    11:00 -2°C° 0.1 mm 10 mps 748 mmHg 77%
    12:00 -2°C° 0.1 mm 10 mps 747 mmHg 77%
    13:00 -2°C° 0.9 mm 10 mps 745 mmHg 79%
    14:00 -2°C° 0.9 mm 11 mps 744 mmHg 81%
    15:00 -1°C° 0.9 mm 11 mps 743 mmHg 83%
    16:00 -1°C° 0.7 mm 11 mps 741 mmHg 85%
    17:00 +1°C° 0.7 mm 10 mps 739 mmHg 86%
    18:00 +1°C° 0.7 mm 10 mps 737 mmHg 87%
    19:00 +2°C° 0.8 mm 9 mps 737 mmHg 88%
    20:00 +4°C° 0.8 mm 8 mps 736 mmHg 89%
    21:00 +5°C° 0.8 mm 7 mps 735 mmHg 90%
    22:00 +5°C° 0.5 mm 8 mps 736 mmHg 87%
    23:00 +5°C° 0.5 mm 10 mps 737 mmHg 83%

    Tomorrow, 16 December, Sunday

    Time Temperature Precipitation Wind Pressure Humidity
    00:00 +4°C° 0.5 mm 11 mps 738 mmHg 80%
    01:00 +3°C° 0.2 mm 9 mps 739 mmHg 79%
    02:00 +4°C° 0.2 mm 8 mps 740 mmHg 78%
    03:00 +4°C° 0.2 mm 7 mps 741 mmHg 76%
    04:00 +3°C° 0 mm 6 mps 742 mmHg 79%
    05:00 +3°C° 0 mm 5 mps 743 mmHg 81%
    06:00 +3°C° 0 mm 5 mps 743 mmHg 84%
    07:00 +3°C° 0 mm 4 mps 744 mmHg 85%
    08:00 +3°C° 0 mm 4 mps 744 mmHg 86%
    09:00 +3°C° 0 mm 4 mps 745 mmHg 88%
    10:00 +3°C° 0 mm 4 mps 745 mmHg 86%
    11:00 +4°C° 0 mm 4 mps 745 mmHg 84%
    12:00 +5°C° 0 mm 4 mps 745 mmHg 82%
    13:00 +5°C° 0.1 mm 4 mps 745 mmHg 84%
    14:00 +5°C° 0.1 mm 3 mps 745 mmHg 86%
    15:00 +5°C° 0.1 mm 3 mps 745 mmHg 88%
    16:00 +5°C° 0.4 mm 3 mps 745 mmHg 89%
    17:00 +4°C° 0.4 mm 3 mps 745 mmHg 90%
    18:00 +4°C° 0.4 mm 3 mps 746 mmHg 91%
    19:00 +4°C° 0.1 mm 3 mps 746 mmHg 92%
    20:00 +3°C° 0.1 mm 3 mps 747 mmHg 92%
    21:00 +3°C° 0.1 mm 3 mps 747 mmHg 92%
    22:00 +4°C° 0 mm 2 mps 748 mmHg 92%
    23:00 +4°C° 0 mm 2 mps 748 mmHg 91%

    Day after tomorrow, 17 December, Monday

    Time Temperature Precipitation Wind Pressure Humidity
    00:00 +3°C° 0 mm 2 mps 748 mmHg 91%
    01:00 +2°C° 0 mm 3 mps 749 mmHg 90%
    02:00 +2°C° 0 mm 3 mps 749 mmHg 90%
    03:00 +2°C° 0 mm 3 mps 750 mmHg 90%
    04:00 +2°C° 0 mm 3 mps 750 mmHg 90%
    05:00 +2°C° 0 mm 3 mps 751 mmHg 90%
    06:00 +3°C° 0 mm 2 mps 751 mmHg 90%
    07:00 +3°C° 0 mm 2 mps 752 mmHg 90%
    08:00 +2°C° 0 mm 3 mps 752 mmHg 90%
    09:00 +2°C° 0 mm 3 mps 753 mmHg 89%
    10:00 +3°C° 0 mm 3 mps 753 mmHg 87%
    11:00 +4°C° 0 mm 3 mps 754 mmHg 84%
    12:00 +5°C° 0 mm 3 mps 754 mmHg 82%
    13:00 +5°C° 0 mm 3 mps 754 mmHg 84%
    14:00 +5°C° 0 mm 3 mps 754 mmHg 85%
    15:00 +5°C° 0 mm 4 mps 753 mmHg 87%
    16:00 +5°C° 0 mm 4 mps 753 mmHg 88%
    17:00 +5°C° 0 mm 5 mps 753 mmHg 89%
    18:00 +5°C° 0 mm 5 mps 753 mmHg 91%
    19:00 +5°C° 0 mm 5 mps 753 mmHg 91%
    20:00 +4°C° 0 mm 6 mps 753 mmHg 91%
    21:00 +5°C° 0 mm 6 mps 753 mmHg 91%
    22:00 +5°C° 0 mm 6 mps 753 mmHg 91%
    23:00 +5°C° 0 mm 7 mps 752 mmHg 90%

    18 December, Tuesday

    Time Temperature Precipitation Wind Pressure Humidity
    00:00 +6°C° 0 mm 7 mps 752 mmHg 90%
    01:00 +6°C° 0 mm 7 mps 752 mmHg 89%
    02:00 +6°C° 0 mm 7 mps 751 mmHg 89%
    03:00 +8°C° 0 mm 7 mps 751 mmHg 88%
    04:00 +8°C° 0.1 mm 7 mps 750 mmHg 88%
    05:00 +8°C° 0.1 mm 7 mps 750 mmHg 88%
    06:00 +7°C° 0.1 mm 8 mps 749 mmHg 88%
    07:00 +7°C° 0 mm 8 mps 749 mmHg 87%
    08:00 +7°C° 0 mm 8 mps 748 mmHg 85%
    09:00 +7°C° 0 mm 9 mps 747 mmHg 84%
    10:00 +7°C° 0.1 mm 9 mps 746 mmHg 82%
    11:00 +7°C° 0.1 mm 9 mps 746 mmHg 80%
    12:00 +7°C° 0.1 mm 9 mps 745 mmHg 78%
    13:00 +7°C° 0.6 mm 10 mps 744 mmHg 78%
    14:00 +6°C° 0.6 mm 10 mps 743 mmHg 78%
    15:00 +6°C° 0.6 mm 10 mps 743 mmHg 79%
    16:00 +6°C° 1 mm 9 mps 742 mmHg 81%
    17:00 +6°C° 1 mm 9 mps 742 mmHg 82%
    18:00 +5°C° 1 mm 8 mps 742 mmHg 84%
    19:00 +6°C° 0.7 mm 7 mps 742 mmHg 86%
    20:00 +7°C° 0.7 mm 6 mps 742 mmHg 88%
    21:00 +7°C° 0.7 mm 4 mps 742 mmHg 91%
    22:00 +6°C° 0.5 mm 4 mps 742 mmHg 90%
    23:00 +7°C° 0.5 mm 3 mps 742 mmHg 90%

    19 December, Wednesday

    Time Temperature Precipitation Wind Pressure Humidity
    00:00 +7°C° 0.5 mm 3 mps 742 mmHg 90%
    01:00 +7°C° 0.2 mm 3 mps 743 mmHg 89%
    02:00 +6°C° 0.2 mm 4 mps 743 mmHg 89%
    03:00 +6°C° 0.2 mm 4 mps 744 mmHg 88%
    04:00 +5°C° 0 mm 4 mps 744 mmHg 87%
    05:00 +5°C° 0 mm 4 mps 745 mmHg 87%
    06:00 +4°C° 0 mm 4 mps 746 mmHg 86%
    07:00 +4°C° 0 mm 3 mps 746 mmHg 85%
    08:00 +4°C° 0 mm 3 mps 747 mmHg 85%
    09:00 +3°C° 0 mm 3 mps 747 mmHg 85%
    10:00 +4°C° 0 mm 4 mps 747 mmHg 83%
    11:00 +5°C° 0 mm 4 mps 748 mmHg 80%
    12:00 +6°C° 0 mm 4 mps 748 mmHg 78%
    13:00 +5°C° 0 mm 4 mps 748 mmHg 80%
    14:00 +5°C° 0 mm 4 mps 748 mmHg 81%
    15:00 +5°C° 0 mm 4 mps 748 mmHg 82%
    16:00 +5°C° 0 mm 4 mps 748 mmHg 83%
    17:00 +5°C° 0 mm 5 mps 748 mmHg 84%
    18:00 +3°C° 0 mm 5 mps 748 mmHg 86%
    19:00 +3°C° 0.3 mm 5 mps 748 mmHg 85%
    20:00 +5°C° 0.3 mm 5 mps 748 mmHg 85%
    21:00 +5°C° 0.3 mm 5 mps 748 mmHg 85%
    22:00 +5°C° 0.1 mm 5 mps 748 mmHg 85%
    23:00 +3°C° 0.1 mm 5 mps 748 mmHg 85%

    20 December, Thursday

    Time Temperature Precipitation Wind Pressure Humidity
    00:00 +3°C° 0.1 mm 5 mps 748 mmHg 85%
    01:00 +3°C° 0.4 mm 5 mps 748 mmHg 85%
    02:00 +3°C° 0.4 mm 5 mps 748 mmHg 85%
    03:00 +3°C° 0.4 mm 5 mps 748 mmHg 84%
    04:00 +3°C° 0.1 mm 5 mps 748 mmHg 85%
    05:00 +4°C° 0.1 mm 4 mps 748 mmHg 86%
    06:00 +4°C° 0.1 mm 4 mps 748 mmHg 87%
    07:00 +4°C° 0.1 mm 4 mps 748 mmHg 88%
    08:00 +4°C° 0.1 mm 3 mps 748 mmHg 89%
    09:00 +4°C° 0.1 mm 3 mps 749 mmHg 89%
    10:00 +4°C° 0.1 mm 3 mps 749 mmHg 87%
    11:00 +5°C° 0.1 mm 4 mps 749 mmHg 85%
    12:00 +6°C° 0.1 mm 4 mps 749 mmHg 82%
    13:00 +6°C° 0.1 mm 4 mps 750 mmHg 83%
    14:00 +6°C° 0.1 mm 4 mps 750 mmHg 84%
    15:00 +6°C° 0.1 mm 4 mps 750 mmHg 85%
    16:00 +7°C° 0.1 mm 3 mps 750 mmHg 86%
    17:00 +5°C° 0.1 mm 3 mps 751 mmHg 87%
    18:00 +5°C° 0.1 mm 3 mps 751 mmHg 87%
    19:00 +5°C° 0 mm 3 mps 751 mmHg 88%
    20:00 +5°C° 0 mm 3 mps 751 mmHg 89%
    21:00 +4°C° 0 mm 3 mps 751 mmHg 91%
    22:00 +4°C° 0 mm 3 mps 751 mmHg 90%
    23:00 +4°C° 0 mm 3 mps 751 mmHg 89%
    Show more